Flag for Germany Weather past 2 weeks in Kerpen, North Rhine-Westphalia, Germany

Now
43 °F

Sprinkles. Passing clouds.


Feels Like: 36 °F
Forecast: 31 / 48 °F
Wind: 14 mph from Southwest

Location: Noervenich

Current Time: Apr 2, 2015 at 2:28:41 AM

Latest Report: Apr 2, 2015 at 1:20 AM


Visibility: N/A

Pressure: 30.01 "Hg

Humidity: 81%

Dew point: 37 °F

Location of KerpenLocation

Historic Weather in Kerpen — Graph

°F

Kerpen temperature yesterday

Maximum temperature yesterday: 46 °F (at 4:20 PM)
Minimum temperature yesterday: 39 °F (at 12:20 AM)
Average temperature yesterday: 42 °F

Past Weeks' High & Low Weather Summary

 TemperatureHumidityPressure
High59 °F (Mar 18, 2:20 PM)100% (Mar 18, 4:20 AM)30.36 "Hg (Mar 18, 4:20 AM)
Low30 °F (Mar 23, 3:20 AM)40% (Mar 26, 1:20 PM)29.30 "Hg (Mar 31, 5:20 AM)
Average44 °F79%29.95 "Hg
* Reported Mar 18 12:20 AM — Apr 2 1:20 AM, Kerpen, Weather by CustomWeather, © 2015

Note: Actual official high and low records may vary slightly from our data, if they occured in-between our weather recording intervals... More about our weather records

Advertising

Kerpen weather history for previous 24 hours

 ConditionsComfort  
Time TempWeatherWind HumidityBarometerVisibility
1:20 AM
Thu, Apr 2
43 °FSprinkles. Passing clouds.14 mph81%30.01 "HgN/A
12:20 AM43 °FSprinkles. Passing clouds.17 mph76%30.04 "HgN/A
11:20 PM
Wed, Apr 1
45 °FPartly cloudy.15 mph66%30.04 "HgN/A
10:20 PM43 °FSprinkles. Partly cloudy.13 mph71%30.07 "HgN/A
9:20 PM43 °FPartly cloudy.9 mph71%30.09 "HgN/A
8:20 PM45 °FPartly sunny.7 mph57%30.09 "HgN/A
7:20 PM45 °FBroken clouds.17 mph53%30.09 "HgN/A
6:20 PM46 °FBroken clouds.16 mph53%30.09 "HgN/A
5:20 PM46 °FBroken clouds.20 mph53%30.09 "HgN/A
4:20 PM46 °FSprinkles. Broken clouds.24 mph50%30.09 "HgN/A
3:20 PM45 °FBroken clouds.17 mph61%30.07 "HgN/A
2:20 PM41 °FBroken clouds.15 mph81%30.09 "HgN/A
1:20 PM41 °FSnow flurries. Broken clouds.16 mph76%30.09 "Hg4 mi
12:20 PM45 °FBroken clouds.17 mph66%30.07 "HgN/A
11:20 AM43 °FPartly sunny.18 mph71%30.07 "HgN/A
10:20 AM43 °FPartly sunny.18 mph71%30.04 "HgN/A
9:20 AM41 °FPartly sunny.21 mph70%30.01 "HgN/A
8:20 AM39 °FPartly sunny.15 mph81%30.01 "HgN/A
7:20 AM39 °FPassing clouds.13 mph75%29.98 "HgN/A
6:20 AM39 °FPassing clouds.17 mph70%29.95 "HgN/A
5:20 AM41 °FPassing clouds.16 mph66%29.92 "HgN/A
4:20 AM39 °FPassing clouds.14 mph75%29.92 "HgN/A
3:20 AM41 °FPassing clouds.16 mph70%29.89 "HgN/A
2:20 AM41 °FPassing clouds.14 mph76%29.86 "HgN/A
Weather by CustomWeather, © 2015

See weather overviewHow to use our weather pages